sat.trackr.live / text

‹ back to catalog

MERIDIAN-M 21L

NORAD 68571 · 2026-071A

PAYLOAD ACTIVE UNKNOWN

§ Identity

Operator
Country
CIS
Launch date
2026-04-03
Launch site
PLMSC
Launch vehicle
Mass (kg)
RCS (m²)

External: N2YO · Heavens-Above · Gunter

§ Orbital elements

Epoch: 2026-05-24T06:53:18.070080Z

Period
717.78 min
Inclination
62.7922°
Eccentricity
0.7192148
Mean motion
2.00618586 rev/d
Perigee alt
1,078.3 km
Apogee alt
39,276.5 km
Semi-major
26,555.5 km
B*
0.0000e+0
RAAN
231.9261°
Arg perigee
285.1326°
Mean anomaly
11.1880°
Rev number
103

§ Raw data

MERIDIAN-M 21L1 68571U 26071A   26144.28701470  .00000014  00000+0  00000+0 0  99922 68571  62.7922 231.9261 7192148 285.1326  11.1880  2.00618586  1039

JSON: /api/v1/satellites/68571 · /tle

For live sub-satellite position, see the globe view (requires WebGL).

§ Visibility from observer

Set your observer location to see the next 7 days of passes ≥ 10°. The values pass through the URL so the page stays shareable.

No JS? Fill the form by hand. The geolocation button needs JavaScript.